Location: Unspecified
(0.0000°N, 0.0000°E)
Time: 10:29:46
(UTC+00:00)

Vanguard 3 - Pass Details

Date: 01 October 2023
Orbit: 507 x 3241 km, 33.3° (Epoch: 06 December)

Event Time Altitude Azimuth Distance (km) Brightness Sun altitude
Rises 15:55:57 0° 255° (WSW) 7,194 13.2 28.4°
Reaches altitude 10° 16:01:32 10° 263° (W) 6,157 13.4 27.0°
Maximum altitude 16:18:14 37° 323° (NW) 3,739 11.2 22.8°
Drops below altitude 10° 16:30:22 10° 26° (NNE) 4,472 10.7 19.8°
Sets 16:33:44 0° 35° (NE) 5,110 10.9 19.0°
